#timestamp,LO_Frequency,Hit 
1500750015.1,286047003.6,N
1500750035.8,286047005.6,N
1500750055.7,286047003.3,N
1500750075.5,286047004.0,N
1500750095.4,286047003.2,N
1500750115.2,286047003.4,N
1500750135.0,286047002.9,N
1500750135.9,286047002.9,N
1500750155.8,286047003.7,N
1500750175.6,286047003.8,N
1500750195.5,286047003.7,N
1500750215.3,286047006.0,N
1500750235.1,286047001.6,N
1500750255.9,286047004.1,N
1500750275.7,286047004.1,N
1500750295.6,286047006.0,N
1500750315.4,286047003.0,N
1500750335.2,286047003.8,N
1500750355.1,286047002.9,N
1500750356.0,286047002.9,N
1500750375.8,286047002.1,N
1500750395.6,286047004.9,N
1500750415.5,286047003.7,N
1500750435.3,286047004.3,N
1500750455.2,286047004.1,N
1500750475.9,286047003.8,N
1500750495.7,286047003.2,N
1500750515.6,286047003.5,N
1500750535.4,286047003.6,N
1500750555.3,286047004.0,N
1500750575.1,286047002.9,N
1500750576.0,286047002.9,N
1500750595.8,286047004.2,N
1500750615.7,286047005.8,N
1500750635.5,286047003.1,N
1500750655.3,286047002.9,N
1500750675.2,286047004.4,N
1500750695.0,286047001.7,N
1500750695.9,286047001.7,N
1500750715.8,286047003.6,N
1500750735.6,286047003.6,N
1500750755.4,286047004.2,N
1500750775.3,286047001.7,N
1500750795.1,286047001.4,N
1500750815.9,286047004.3,N
1500750835.7,286047003.4,N
1500750855.5,286047003.8,N
1500750875.4,286047004.4,N
1500750895.2,286047004.4,N
1500750915.0,286047003.9,N
1500750916.0,286047003.9,N
1500750935.8,286047004.4,N
1500750955.6,286047003.3,N
1500750975.5,286047005.9,N
1500750995.3,286047002.0,N
1500751015.1,286047002.4,N
1500751035.9,286047005.2,N
1500751055.7,286047005.5,N
1500751075.6,286047003.1,N
1500751095.4,286047003.8,N
1500751115.2,286047003.0,N
1500751135.1,286047005.2,N
1500751136.0,286047005.2,N
1500751155.8,286047003.2,N
1500751175.7,286047006.0,N
1500751195.5,286047006.0,N
1500751215.3,286047005.2,N
1500751235.2,286047005.5,N
1500751255.0,286047003.1,N
1500751255.9,286047003.1,N
1500751275.7,286047003.5,N
1500751295.6,286047006.0,N
1500751315.4,286047005.8,N
1500751335.3,286047005.5,N
1500751355.1,286047005.1,N
1500751356.0,286047005.1,N
1500751375.8,286047003.0,N
1500751395.7,286047004.6,N
1500751415.5,286047004.7,N
1500751435.4,286047005.8,N
1500751455.2,286047002.9,N
1500751475.0,286047002.9,N
1500751475.9,286047002.9,N
1500751495.8,286047003.9,N
1500751515.6,286047004.1,N
1500751535.5,286047006.0,N
1500751555.3,286047006.0,N
1500751575.1,286047003.0,N
1500751595.9,286047005.6,N
1500751615.7,286047005.9,N
1500751635.6,286047004.7,N
1500751655.4,286047006.0,N
1500751675.2,286047004.3,N
1500751695.1,286047003.1,N
1500751696.0,286047003.1,N
1500751715.8,286047006.0,N
1500751735.6,286047005.5,N
1500751755.5,286047005.1,N
1500751805.4,286047005.1,Y
1500751815.3,286047004.4,N
1500751835.1,286046999.4,N
1500751855.8,286046998.8,N
1500751875.7,286046998.6,N
1500751895.5,286046998.2,N
1500751915.4,286047001.2,N
1500751935.2,286046999.3,N
1500751955.0,286046998.8,N
1500751955.9,286046998.8,N
1500751975.8,286046999.4,N
1500751995.6,286047000.7,N
1500752015.5,286046998.8,N
1500752035.3,286046999.7,N
1500752055.1,286047001.5,N
1500752075.9,286047002.0,N
1500752095.7,286047002.5,N
1500752115.5,286047000.6,N
1500752135.4,286047000.9,N
1500752155.2,286047000.1,N
1500752175.1,286047002.8,N
1500752176.0,286047002.8,N
1500752195.8,286046998.6,N
1500752215.6,286047000.7,N
1500752235.5,286046998.3,N
1500752255.3,286047000.5,N
1500752275.2,286047000.9,N
1500752295.9,286047002.3,N
1500752315.7,286047000.2,N
1500752335.6,286047000.3,N
1500752355.4,286046999.9,N
1500752375.2,286046998.5,N
1500752395.1,286046998.2,N
1500752396.0,286046998.2,N
1500752415.8,286047002.7,N
1500752435.7,286047002.8,N
1500752455.5,286047000.5,N
1500752475.3,286047000.2,N
1500752495.2,286047002.4,N
1500752515.0,286047001.5,N
1500752515.9,286047001.5,N
1500752535.8,286047002.0,N
1500752555.6,286047000.5,N
1500752575.4,286047000.6,N
1500752595.3,286047000.1,N
1500752615.1,286047001.6,N
1500752635.8,286047001.7,N
1500752655.7,286047001.5,N
1500752675.5,286047001.9,N
1500752695.4,286047001.5,N
1500752715.2,286047006.0,N
1500752735.0,286047003.1,N
1500752735.9,286047003.1,N
1500752755.8,286047001.6,N
1500752775.6,286047002.8,N
1500752795.5,286047000.2,N
1500752815.3,286047001.3,N
1500752835.1,286047002.6,N
1500752855.9,286047000.0,N
1500752875.7,286047002.6,N
1500752895.6,286047001.3,N
1500752915.4,286047004.4,N
1500752935.2,286047001.7,N
1500752955.1,286047004.0,N
1500752956.0,286047004.0,N
1500752975.8,286047002.7,N
1500752995.6,286047000.2,N
1500753015.5,286047002.3,N
1500753035.3,286047002.3,N
1500753055.2,286046998.1,N
1500753075.9,286047000.0,N
1500753095.7,286047000.2,N
1500753115.6,286047002.1,N
1500753135.4,286046999.7,N
1500753155.2,286046999.8,N
1500753175.1,286047002.8,N
1500753176.0,286047002.8,N
1500753195.8,286047000.9,N
1500753215.7,286047002.3,N
1500753235.5,286047002.7,N
1500753255.3,286047002.6,N
1500753275.2,286047000.2,N
1500753295.0,286046999.9,N
1500753295.9,286046999.9,N
1500753315.8,286047000.5,N
1500753335.6,286047002.5,N
1500753355.4,286047001.7,N
1500753375.3,286047000.0,N
1500753395.1,286047000.0,N
1500753415.8,286046999.8,N
1500753435.7,286047002.2,N
1500753455.5,286047002.2,N
1500753475.4,286046999.7,N
1500753495.2,286047004.4,N
1500753515.0,286047005.5,N
1500753515.9,286047005.5,N
1500753535.8,286047001.3,N
1500753555.6,286047001.3,N
1500753575.5,286047001.3,N
1500753595.3,286047004.4,N
